Time,TemperatureF,DewpointF,PressureIn,WindDirection,WindDirectionDegrees,WindSpeedMPH,WindSpeedGustMPH,Humidity,HourlyPrecipIn,Conditions,Clouds,dailyrainin,SolarRadiationWatts/m^2,SoftwareType,DateUTC
2013-04-06 00:00:00,36.5,22.3,30.00,NE,51,0.0,4.0,56,0.00,,,0.00,0.0,meteohub,2013-04-06 04:00:00,
2013-04-06 00:02:00,36.7,22.5,30.00,NE,51,0.0,4.0,56,0.00,,,0.00,0.0,meteohub,2013-04-06 04:02:00,
2013-04-06 00:07:00,36.7,22.8,30.01,East,86,0.0,4.0,57,0.00,,,0.00,0.0,meteohub,2013-04-06 04:07:00,
2013-04-06 00:12:00,36.1,22.8,30.00,ESE,123,0.0,4.0,58,0.00,,,0.00,0.0,meteohub,2013-04-06 04:12:00,
2013-04-06 00:17:00,36.1,22.5,30.01,NE,39,1.0,4.0,57,0.00,,,0.00,0.0,meteohub,2013-04-06 04:17:00,
2013-04-06 00:23:00,36.1,22.5,30.01,NE,39,0.0,4.0,57,0.00,,,0.00,0.0,meteohub,2013-04-06 04:23:00,
2013-04-06 00:28:00,36.1,23.2,30.01,NE,39,0.0,3.0,59,0.00,,,0.00,0.0,meteohub,2013-04-06 04:28:00,
2013-04-06 00:33:00,36.0,22.3,30.02,NE,34,1.0,3.0,57,0.00,,,0.00,0.0,meteohub,2013-04-06 04:33:00,
2013-04-06 00:39:00,36.0,22.6,30.02,ENE,59,0.0,3.0,58,0.00,,,0.00,0.0,meteohub,2013-04-06 04:39:00,
2013-04-06 00:44:00,35.8,22.5,30.02,ENE,78,0.0,3.0,58,0.00,,,0.00,0.0,meteohub,2013-04-06 04:44:00,
2013-04-06 00:50:00,35.8,22.8,30.02,ENE,78,1.0,3.0,59,0.00,,,0.00,0.0,meteohub,2013-04-06 04:50:00,
2013-04-06 00:55:00,35.8,22.8,30.02,South,171,0.0,2.0,59,0.00,,,0.00,0.0,meteohub,2013-04-06 04:55:00,
2013-04-06 01:00:00,35.8,23.7,30.03,ESE,122,0.0,2.0,61,0.00,,,0.00,0.0,meteohub,2013-04-06 05:00:00,
2013-04-06 01:05:00,35.4,22.5,30.03,ESE,122,0.0,2.0,59,0.00,,,0.00,0.0,meteohub,2013-04-06 05:05:00,
2013-04-06 01:11:00,35.4,23.4,30.03,ESE,122,0.0,2.0,61,0.00,,,0.00,0.0,meteohub,2013-04-06 05:11:00,
2013-04-06 01:16:00,35.2,23.2,30.03,ESE,122,0.0,2.0,61,0.00,,,0.00,0.0,meteohub,2013-04-06 05:16:00,
2013-04-06 01:21:00,35.2,21.9,30.03,North,0,1.0,5.0,58,0.00,,,0.00,0.0,meteohub,2013-04-06 05:21:00,
2013-04-06 01:27:00,35.4,22.1,30.04,NE,52,0.0,5.0,58,0.00,,,0.00,0.0,meteohub,2013-04-06 05:27:00,
2013-04-06 01:32:00,35.8,21.6,30.04,East,98,2.0,5.0,56,0.00,,,0.00,0.0,meteohub,2013-04-06 05:32:00,
2013-04-06 01:37:00,35.8,22.1,30.04,ENE,78,0.0,4.0,57,0.00,,,0.00,0.0,meteohub,2013-04-06 05:37:00,
2013-04-06 01:42:00,36.0,21.4,30.04,NE,51,0.0,9.0,55,0.00,,,0.00,0.0,meteohub,2013-04-06 05:42:00,
2013-04-06 01:47:00,35.8,21.6,30.04,NNE,18,1.0,9.0,56,0.00,,,0.00,0.0,meteohub,2013-04-06 05:47:00,
2013-04-06 01:52:00,35.8,21.6,30.04,SW,233,1.0,9.0,56,0.00,,,0.00,0.0,meteohub,2013-04-06 05:52:00,
2013-04-06 01:58:00,35.6,21.9,30.04,SW,229,0.0,2.0,57,0.00,,,0.00,0.0,meteohub,2013-04-06 05:58:00,
2013-04-06 02:03:00,35.4,22.1,30.05,SE,134,2.0,2.0,58,0.00,,,0.00,0.0,meteohub,2013-04-06 06:03:00,
2013-04-06 02:08:00,35.4,22.5,30.05,NE,56,1.0,2.0,59,0.00,,,0.00,0.0,meteohub,2013-04-06 06:08:00,
2013-04-06 02:14:00,35.4,22.5,30.05,SSW,195,0.0,2.0,59,0.00,,,0.00,0.0,meteohub,2013-04-06 06:14:00,
2013-04-06 02:19:00,35.4,22.5,30.05,West,267,0.0,3.0,59,0.00,,,0.00,0.0,meteohub,2013-04-06 06:19:00,
2013-04-06 02:24:00,35.6,22.6,30.06,NE,43,1.0,3.0,59,0.00,,,0.00,0.0,meteohub,2013-04-06 06:24:00,
2013-04-06 02:29:00,35.8,24.4,30.06,NE,44,0.0,3.0,63,0.00,,,0.00,0.0,meteohub,2013-04-06 06:29:00,
2013-04-06 02:35:00,35.6,25.3,30.06,NNE,26,1.0,7.0,66,0.00,,,0.00,0.0,meteohub,2013-04-06 06:35:00,
2013-04-06 02:40:00,35.2,25.7,30.06,NE,52,5.0,7.0,68,0.00,,,0.00,0.0,meteohub,2013-04-06 06:40:00,
2013-04-06 02:45:00,34.9,25.3,30.06,North,5,3.0,7.0,68,0.00,,,0.00,0.0,meteohub,2013-04-06 06:45:00,
2013-04-06 02:51:00,34.3,24.8,30.06,NNE,27,3.0,8.0,68,0.00,,,0.00,0.0,meteohub,2013-04-06 06:51:00,
2013-04-06 02:56:00,34.2,24.6,30.07,North,10,4.0,8.0,68,0.00,,,0.00,0.0,meteohub,2013-04-06 06:56:00,
2013-04-06 03:02:00,34.0,24.3,30.08,North,355,2.0,12.0,67,0.00,,,0.00,0.0,meteohub,2013-04-06 07:02:00,
2013-04-06 03:07:00,33.8,23.7,30.08,NNE,29,2.0,12.0,66,0.00,,,0.00,0.0,meteohub,2013-04-06 07:07:00,
2013-04-06 03:12:00,33.6,22.5,30.08,NE,44,3.0,12.0,63,0.00,,,0.00,0.0,meteohub,2013-04-06 07:12:00,
2013-04-06 03:18:00,33.6,21.9,30.09,ENE,62,4.0,8.0,62,0.00,,,0.00,0.0,meteohub,2013-04-06 07:18:00,
2013-04-06 03:23:00,33.6,21.2,30.09,ENE,62,5.0,10.0,60,0.00,,,0.00,0.0,meteohub,2013-04-06 07:23:00,
2013-04-06 03:28:00,33.6,21.2,30.09,NNE,27,1.0,10.0,60,0.00,,,0.00,0.0,meteohub,2013-04-06 07:28:00,
2013-04-06 03:34:00,33.4,21.0,30.10,North,5,2.0,10.0,60,0.00,,,0.00,0.0,meteohub,2013-04-06 07:34:00,
2013-04-06 03:39:00,33.4,20.3,30.10,NW,319,1.0,8.0,58,0.00,,,0.00,0.0,meteohub,2013-04-06 07:39:00,
2013-04-06 03:44:00,33.3,20.5,30.11,East,84,3.0,9.0,59,0.00,,,0.00,0.0,meteohub,2013-04-06 07:44:00,
2013-04-06 03:50:00,33.1,19.6,30.11,East,97,3.0,9.0,57,0.00,,,0.00,0.0,meteohub,2013-04-06 07:50:00,
2013-04-06 03:55:00,33.1,19.6,30.12,NNE,28,4.0,7.0,57,0.00,,,0.00,0.0,meteohub,2013-04-06 07:55:00,
2013-04-06 04:00:00,32.7,18.0,30.12,NE,55,0.0,8.0,54,0.00,,,0.00,0.0,meteohub,2013-04-06 08:00:00,
2013-04-06 04:05:00,32.7,17.4,30.12,North,355,0.0,8.0,53,0.00,,,0.00,0.0,meteohub,2013-04-06 08:05:00,
2013-04-06 04:10:00,32.5,16.3,30.13,NW,324,2.0,8.0,51,0.00,,,0.00,0.0,meteohub,2013-04-06 08:10:00,
2013-04-06 04:15:00,32.4,16.3,30.13,NNE,24,1.0,7.0,51,0.00,,,0.00,0.0,meteohub,2013-04-06 08:15:00,
2013-04-06 04:21:00,32.4,16.3,30.14,North,11,1.0,7.0,51,0.00,,,0.00,0.0,meteohub,2013-04-06 08:21:00,
2013-04-06 04:27:00,32.2,16.2,30.14,West,278,0.0,6.0,51,0.00,,,0.00,0.0,meteohub,2013-04-06 08:27:00,
2013-04-06 04:32:00,31.8,16.2,30.14,NW,319,0.0,8.0,52,0.00,,,0.00,0.0,meteohub,2013-04-06 08:32:00,
2013-04-06 04:37:00,31.6,15.1,30.15,NNW,327,2.0,8.0,50,0.00,,,0.00,0.0,meteohub,2013-04-06 08:37:00,
2013-04-06 04:42:00,31.8,14.9,30.15,NE,44,1.0,8.0,49,0.00,,,0.00,0.0,meteohub,2013-04-06 08:42:00,
2013-04-06 04:47:00,31.8,15.3,30.15,ENE,69,0.0,5.0,50,0.00,,,0.00,0.0,meteohub,2013-04-06 08:47:00,
2013-04-06 04:52:00,31.6,14.2,30.16,North,0,1.0,5.0,48,0.00,,,0.00,0.0,meteohub,2013-04-06 08:52:00,
2013-04-06 04:57:00,31.6,14.7,30.16,NNW,347,0.0,5.0,49,0.00,,,0.00,0.0,meteohub,2013-04-06 08:57:00,
2013-04-06 05:03:00,31.5,14.0,30.16,ENE,57,0.0,6.0,48,0.00,,,0.00,0.0,meteohub,2013-04-06 09:03:00,
2013-04-06 05:08:00,31.5,14.0,30.16,West,277,3.0,8.0,48,0.00,,,0.00,0.0,meteohub,2013-04-06 09:08:00,
2013-04-06 05:13:00,31.5,13.6,30.16,NNE,23,1.0,8.0,47,0.00,,,0.00,0.0,meteohub,2013-04-06 09:13:00,
2013-04-06 05:18:00,31.5,14.0,30.17,NNE,21,2.0,8.0,48,0.00,,,0.00,0.0,meteohub,2013-04-06 09:18:00,
2013-04-06 05:23:00,31.3,13.8,30.17,NNW,333,1.0,7.0,48,0.00,,,0.00,0.0,meteohub,2013-04-06 09:23:00,
2013-04-06 05:29:00,31.1,14.2,30.17,NNE,29,0.0,7.0,49,0.00,,,0.00,0.0,meteohub,2013-04-06 09:29:00,
2013-04-06 05:34:00,30.9,14.0,30.18,NNE,15,0.0,5.0,49,0.00,,,0.00,0.0,meteohub,2013-04-06 09:34:00,
2013-04-06 05:39:00,30.7,14.4,30.18,NE,35,3.0,8.0,50,0.00,,,0.00,0.0,meteohub,2013-04-06 09:39:00,
2013-04-06 05:44:00,30.7,13.8,30.18,ENE,65,1.0,8.0,49,0.00,,,0.00,0.0,meteohub,2013-04-06 09:44:00,
2013-04-06 05:49:00,30.7,14.4,30.18,ESE,105,1.0,8.0,50,0.00,,,0.00,0.0,meteohub,2013-04-06 09:49:00,
2013-04-06 05:55:00,30.7,14.4,30.19,NNW,343,2.0,7.0,50,0.00,,,0.00,0.0,meteohub,2013-04-06 09:55:00,
2013-04-06 06:00:00,30.7,14.4,30.19,NE,37,0.0,6.0,50,0.00,,,0.00,0.0,meteohub,2013-04-06 10:00:00,
2013-04-06 06:05:00,30.7,14.4,30.19,South,173,1.0,6.0,50,0.00,,,0.00,0.0,meteohub,2013-04-06 10:05:00,
2013-04-06 06:11:00,30.7,14.4,30.20,NW,306,2.0,11.0,50,0.00,,,0.00,0.0,meteohub,2013-04-06 10:11:00,
2013-04-06 06:16:00,30.6,14.5,30.20,NNE,30,1.0,11.0,51,0.00,,,0.00,0.0,meteohub,2013-04-06 10:16:00,
2013-04-06 06:22:00,30.4,14.4,30.20,NW,316,2.0,11.0,51,0.00,,,0.00,0.0,meteohub,2013-04-06 10:22:00,
2013-04-06 06:27:00,30.4,14.4,30.21,West,271,2.0,5.0,51,0.00,,,0.00,0.0,meteohub,2013-04-06 10:27:00,
2013-04-06 06:32:00,30.2,14.7,30.21,ENE,58,3.0,5.0,52,0.00,,,0.00,0.0,meteohub,2013-04-06 10:32:00,
2013-04-06 06:37:00,30.0,14.0,30.21,NNW,342,1.0,5.0,51,0.00,,,0.00,7.0,meteohub,2013-04-06 10:37:00,
2013-04-06 06:42:00,30.0,14.0,30.22,NNE,31,2.0,5.0,51,0.00,,,0.00,11.0,meteohub,2013-04-06 10:42:00,
2013-04-06 06:47:00,30.0,13.6,30.22,ENE,76,7.0,7.0,50,0.00,,,0.00,12.0,meteohub,2013-04-06 10:47:00,
2013-04-06 06:52:00,30.0,12.7,30.22,East,80,9.0,16.0,48,0.00,,,0.00,16.0,meteohub,2013-04-06 10:52:00,
2013-04-06 06:57:00,30.0,13.1,30.22,NW,320,1.0,16.0,49,0.00,,,0.00,19.0,meteohub,2013-04-06 10:57:00,
2013-04-06 06:58:00,30.0,13.1,30.22,ENE,65,2.0,16.0,49,0.00,,,0.00,19.0,meteohub,2013-04-06 10:58:00,
2013-04-06 07:07:00,30.0,13.1,30.23,NNW,331,0.0,9.0,49,0.00,,,0.00,28.0,meteohub,2013-04-06 11:07:00,
2013-04-06 07:12:00,30.0,12.7,30.23,WNW,302,1.0,7.0,48,0.00,,,0.00,28.0,meteohub,2013-04-06 11:12:00,
2013-04-06 07:17:00,30.0,12.2,30.23,NE,42,4.0,14.0,47,0.00,,,0.00,32.0,meteohub,2013-04-06 11:17:00,
2013-04-06 07:22:00,30.0,11.7,30.23,NE,35,2.0,14.0,46,0.00,,,0.00,39.0,meteohub,2013-04-06 11:22:00,
2013-04-06 07:27:00,30.2,10.9,30.24,NE,41,3.0,8.0,44,0.00,,,0.00,39.0,meteohub,2013-04-06 11:27:00,
2013-04-06 07:32:00,30.4,11.1,30.24,NE,43,0.0,8.0,44,0.00,,,0.00,56.0,meteohub,2013-04-06 11:32:00,
2013-04-06 07:33:00,30.4,11.7,30.24,NW,304,1.0,8.0,45,0.00,,,0.00,40.0,meteohub,2013-04-06 11:33:00,
2013-04-06 07:39:00,30.6,10.2,30.24,NE,56,1.0,8.0,42,0.00,,,0.00,77.0,meteohub,2013-04-06 11:39:00,
2013-04-06 07:44:00,30.6,10.2,30.25,NNE,13,2.0,8.0,42,0.00,,,0.00,72.0,meteohub,2013-04-06 11:44:00,
2013-04-06 07:49:00,30.7,9.3,30.25,ESE,117,3.0,8.0,40,0.00,,,0.00,79.0,meteohub,2013-04-06 11:49:00,
2013-04-06 07:54:00,30.9,8.2,30.25,NW,315,5.0,8.0,38,0.00,,,0.00,93.0,meteohub,2013-04-06 11:54:00,
2013-04-06 07:59:00,31.1,9.0,30.25,North,0,2.0,8.0,39,0.00,,,0.00,95.0,meteohub,2013-04-06 11:59:00,
2013-04-06 08:04:00,31.3,8.1,30.25,NW,305,0.0,8.0,37,0.00,,,0.00,77.0,meteohub,2013-04-06 12:04:00,
2013-04-06 08:09:00,31.6,7.7,30.25,NW,315,3.0,8.0,36,0.00,,,0.00,98.0,meteohub,2013-04-06 12:09:00,
2013-04-06 08:15:00,31.8,7.3,30.25,WNW,302,5.0,6.0,35,0.00,,,0.00,179.0,meteohub,2013-04-06 12:15:00,
2013-04-06 08:20:00,32.0,7.5,30.25,ENE,58,4.0,7.0,35,0.00,,,0.00,202.0,meteohub,2013-04-06 12:20:00,
2013-04-06 08:25:00,32.2,7.0,30.26,NNW,327,3.0,8.0,34,0.00,,,0.00,227.0,meteohub,2013-04-06 12:25:00,
2013-04-06 08:30:00,32.4,6.4,30.26,NNE,33,2.0,8.0,33,0.00,,,0.00,216.0,meteohub,2013-04-06 12:30:00,
2013-04-06 08:36:00,32.4,6.4,30.27,NE,37,1.0,9.0,33,0.00,,,0.00,153.0,meteohub,2013-04-06 12:36:00,
2013-04-06 08:42:00,32.5,6.6,30.27,NW,314,4.0,9.0,33,0.00,,,0.00,98.0,meteohub,2013-04-06 12:42:00,
2013-04-06 08:47:00,32.4,6.4,30.27,WNW,284,2.0,12.0,33,0.00,,,0.00,151.0,meteohub,2013-04-06 12:47:00,
2013-04-06 08:52:00,32.4,6.4,30.27,NW,305,4.0,12.0,33,0.00,,,0.00,169.0,meteohub,2013-04-06 12:52:00,
2013-04-06 08:57:00,32.4,7.2,30.27,ENE,57,1.0,14.0,34,0.00,,,0.00,253.0,meteohub,2013-04-06 12:57:00,
2013-04-06 09:02:00,32.7,8.1,30.27,NE,47,6.0,14.0,35,0.00,,,0.00,334.0,meteohub,2013-04-06 13:02:00,
2013-04-06 09:07:00,33.1,7.2,30.27,NNE,22,2.0,14.0,33,0.00,,,0.00,388.0,meteohub,2013-04-06 13:07:00,
2013-04-06 09:12:00,33.4,6.8,30.27,North,5,2.0,12.0,32,0.00,,,0.00,461.0,meteohub,2013-04-06 13:12:00,
2013-04-06 09:17:00,33.6,7.0,30.28,NE,38,5.0,10.0,32,0.00,,,0.00,476.0,meteohub,2013-04-06 13:17:00,
2013-04-06 09:22:00,33.6,7.5,30.28,North,0,2.0,10.0,33,0.00,,,0.00,492.0,meteohub,2013-04-06 13:22:00,
2013-04-06 09:28:00,34.2,7.3,30.28,NNW,339,2.0,8.0,32,0.00,,,0.00,508.0,meteohub,2013-04-06 13:28:00,
2013-04-06 09:33:00,34.5,7.7,30.28,WNW,294,3.0,8.0,32,0.00,,,0.00,526.0,meteohub,2013-04-06 13:33:00,
2013-04-06 09:38:00,35.1,8.2,30.28,NNW,329,0.0,9.0,32,0.00,,,0.00,540.0,meteohub,2013-04-06 13:38:00,
2013-04-06 09:43:00,35.4,7.7,30.29,NE,42,3.0,9.0,31,0.00,,,0.00,555.0,meteohub,2013-04-06 13:43:00,
2013-04-06 09:49:00,35.4,7.0,30.29,North,355,4.0,7.0,30,0.00,,,0.00,570.0,meteohub,2013-04-06 13:49:00,
2013-04-06 09:54:00,35.6,7.2,30.29,NE,36,3.0,9.0,30,0.00,,,0.00,582.0,meteohub,2013-04-06 13:54:00,
2013-04-06 09:59:00,35.8,6.6,30.29,NNW,331,3.0,10.0,29,0.00,,,0.00,598.0,meteohub,2013-04-06 13:59:00,
2013-04-06 10:04:00,36.0,7.5,30.28,NE,34,1.0,10.0,30,0.00,,,0.00,606.0,meteohub,2013-04-06 14:04:00,
2013-04-06 10:09:00,36.5,7.2,30.29,WNW,290,3.0,10.0,29,0.00,,,0.00,622.0,meteohub,2013-04-06 14:09:00,
2013-04-06 10:15:00,36.9,6.8,30.29,North,349,3.0,7.0,28,0.00,,,0.00,635.0,meteohub,2013-04-06 14:15:00,
2013-04-06 10:20:00,37.0,6.1,30.29,NE,38,3.0,10.0,27,0.00,,,0.00,650.0,meteohub,2013-04-06 14:20:00,
2013-04-06 10:26:00,37.0,7.0,30.29,NNW,347,3.0,10.0,28,0.00,,,0.00,661.0,meteohub,2013-04-06 14:26:00,
2013-04-06 10:31:00,37.6,7.3,30.29,ENE,58,5.0,10.0,28,0.00,,,0.00,673.0,meteohub,2013-04-06 14:31:00,
2013-04-06 10:36:00,37.8,5.9,30.30,WNW,294,3.0,10.0,26,0.00,,,0.00,680.0,meteohub,2013-04-06 14:36:00,
2013-04-06 10:42:00,37.8,6.8,30.30,NW,306,4.0,10.0,27,0.00,,,0.00,696.0,meteohub,2013-04-06 14:42:00,
2013-04-06 10:47:00,37.9,7.0,30.30,North,355,2.0,10.0,27,0.00,,,0.00,705.0,meteohub,2013-04-06 14:47:00,
2013-04-06 10:52:00,38.3,6.4,30.30,NW,326,2.0,10.0,26,0.00,,,0.00,717.0,meteohub,2013-04-06 14:52:00,
2013-04-06 10:57:00,38.8,6.8,30.29,NNW,327,4.0,10.0,26,0.00,,,0.00,724.0,meteohub,2013-04-06 14:57:00,
2013-04-06 11:02:00,38.8,6.8,30.29,North,0,1.0,10.0,26,0.00,,,0.00,735.0,meteohub,2013-04-06 15:02:00,
2013-04-06 11:07:00,38.8,6.1,30.29,NNE,28,2.0,12.0,25,0.00,,,0.00,747.0,meteohub,2013-04-06 15:07:00,
2013-04-06 11:12:00,39.2,6.3,30.29,ENE,78,2.0,12.0,25,0.00,,,0.00,754.0,meteohub,2013-04-06 15:12:00,
2013-04-06 11:17:00,39.6,7.5,30.29,North,9,2.0,12.0,26,0.00,,,0.00,761.0,meteohub,2013-04-06 15:17:00,
2013-04-06 11:23:00,39.7,7.7,30.29,NNW,333,2.0,9.0,26,0.00,,,0.00,772.0,meteohub,2013-04-06 15:23:00,
2013-04-06 11:28:00,40.1,7.9,30.30,North,5,2.0,9.0,26,0.00,,,0.00,777.0,meteohub,2013-04-06 15:28:00,
2013-04-06 11:33:00,40.3,5.4,30.30,NE,43,3.0,9.0,23,0.00,,,0.00,788.0,meteohub,2013-04-06 15:33:00,
2013-04-06 11:38:00,40.3,7.2,30.29,East,83,6.0,11.0,25,0.00,,,0.00,793.0,meteohub,2013-04-06 15:38:00,
2013-04-06 11:43:00,40.3,6.3,30.29,NNW,346,4.0,14.0,24,0.00,,,0.00,796.0,meteohub,2013-04-06 15:43:00,
2013-04-06 11:49:00,40.5,7.3,30.30,NE,34,1.0,14.0,25,0.00,,,0.00,802.0,meteohub,2013-04-06 15:49:00,
2013-04-06 11:54:00,41.2,7.2,30.30,North,355,2.0,14.0,24,0.00,,,0.00,809.0,meteohub,2013-04-06 15:54:00,
2013-04-06 11:59:00,41.5,7.3,30.29,NNE,22,6.0,9.0,24,0.00,,,0.00,812.0,meteohub,2013-04-06 15:59:00,
2013-04-06 12:04:00,41.5,6.4,30.29,NNE,31,2.0,9.0,23,0.00,,,0.00,819.0,meteohub,2013-04-06 16:04:00,
2013-04-06 12:09:00,41.7,6.6,30.29,North,0,1.0,9.0,23,0.00,,,0.00,823.0,meteohub,2013-04-06 16:09:00,
2013-04-06 12:15:00,41.7,6.6,30.30,North,5,3.0,12.0,23,0.00,,,0.00,824.0,meteohub,2013-04-06 16:15:00,
2013-04-06 12:20:00,41.5,7.3,30.30,ENE,73,4.0,12.0,24,0.00,,,0.00,828.0,meteohub,2013-04-06 16:20:00,
2013-04-06 12:25:00,41.4,8.2,30.29,ENE,58,3.0,12.0,25,0.00,,,0.00,831.0,meteohub,2013-04-06 16:25:00,
2013-04-06 12:30:00,41.4,6.3,30.29,East,85,6.0,9.0,23,0.00,,,0.00,830.0,meteohub,2013-04-06 16:30:00,
2013-04-06 12:35:00,41.5,7.3,30.29,WNW,300,3.0,10.0,24,0.00,,,0.00,831.0,meteohub,2013-04-06 16:35:00,
2013-04-06 12:40:00,41.9,7.7,30.29,East,84,6.0,11.0,24,0.00,,,0.00,833.0,meteohub,2013-04-06 16:40:00,
2013-04-06 12:45:00,42.4,8.2,30.29,WNW,293,4.0,11.0,24,0.00,,,0.00,835.0,meteohub,2013-04-06 16:45:00,
2013-04-06 12:50:00,42.8,7.5,30.29,NW,313,0.0,11.0,23,0.00,,,0.00,837.0,meteohub,2013-04-06 16:50:00,
2013-04-06 12:56:00,43.0,7.7,30.29,NNW,336,1.0,9.0,23,0.00,,,0.00,833.0,meteohub,2013-04-06 16:56:00,
2013-04-06 13:01:00,43.3,7.0,30.29,NE,52,2.0,13.0,22,0.00,,,0.00,835.0,meteohub,2013-04-06 17:01:00,
2013-04-06 13:07:00,43.3,8.1,30.29,ESE,103,7.0,13.0,23,0.00,,,0.00,837.0,meteohub,2013-04-06 17:07:00,
2013-04-06 13:12:00,43.5,8.2,30.28,ENE,75,5.0,8.0,23,0.00,,,0.00,833.0,meteohub,2013-04-06 17:12:00,
2013-04-06 13:17:00,43.5,9.1,30.28,NNW,340,0.0,10.0,24,0.00,,,0.00,831.0,meteohub,2013-04-06 17:17:00,
2013-04-06 13:22:00,44.1,9.5,30.28,WNW,284,3.0,10.0,24,0.00,,,0.00,833.0,meteohub,2013-04-06 17:22:00,
2013-04-06 13:27:00,44.4,7.9,30.28,NNE,30,2.0,10.0,22,0.00,,,0.00,828.0,meteohub,2013-04-06 17:27:00,
2013-04-06 13:33:00,44.2,7.7,30.28,WSW,250,1.0,9.0,22,0.00,,,0.00,824.0,meteohub,2013-04-06 17:33:00,
2013-04-06 13:38:00,44.4,7.0,30.28,West,275,1.0,9.0,21,0.00,,,0.00,819.0,meteohub,2013-04-06 17:38:00,
2013-04-06 13:43:00,44.4,7.0,30.28,NNE,30,0.0,8.0,21,0.00,,,0.00,814.0,meteohub,2013-04-06 17:43:00,
2013-04-06 13:48:00,44.8,9.1,30.28,ENE,74,0.0,8.0,23,0.00,,,0.00,814.0,meteohub,2013-04-06 17:48:00,
2013-04-06 13:54:00,45.1,7.5,30.28,NW,325,1.0,7.0,21,0.00,,,0.00,803.0,meteohub,2013-04-06 17:54:00,
2013-04-06 13:59:00,45.3,7.7,30.28,East,101,3.0,7.0,21,0.00,,,0.00,803.0,meteohub,2013-04-06 17:59:00,
2013-04-06 14:05:00,45.3,8.8,30.28,NE,55,3.0,7.0,22,0.00,,,0.00,795.0,meteohub,2013-04-06 18:05:00,
2013-04-06 14:10:00,45.7,10.0,30.27,ESE,118,1.0,8.0,23,0.00,,,0.00,791.0,meteohub,2013-04-06 18:10:00,
2013-04-06 14:15:00,46.0,9.3,30.27,East,92,1.0,8.0,22,0.00,,,0.00,786.0,meteohub,2013-04-06 18:15:00,
2013-04-06 14:21:00,46.6,9.7,30.27,NW,314,0.0,5.0,22,0.00,,,0.00,777.0,meteohub,2013-04-06 18:21:00,
2013-04-06 14:27:00,46.2,10.4,30.27,NNW,337,3.0,7.0,23,0.00,,,0.00,770.0,meteohub,2013-04-06 18:27:00,
2013-04-06 14:32:00,46.6,9.7,30.27,East,93,3.0,9.0,22,0.00,,,0.00,759.0,meteohub,2013-04-06 18:32:00,
2013-04-06 14:37:00,46.8,11.8,30.27,WNW,288,0.0,9.0,24,0.00,,,0.00,752.0,meteohub,2013-04-06 18:37:00,
2013-04-06 14:42:00,46.9,6.8,30.27,North,5,2.0,9.0,19,0.00,,,0.00,742.0,meteohub,2013-04-06 18:42:00,
2013-04-06 14:47:00,46.9,6.8,30.27,West,277,2.0,8.0,19,0.00,,,0.00,735.0,meteohub,2013-04-06 18:47:00,
2013-04-06 14:52:00,46.9,6.8,30.27,NNE,24,4.0,8.0,19,0.00,,,0.00,724.0,meteohub,2013-04-06 18:52:00,
2013-04-06 14:58:00,47.3,12.4,30.27,NNE,27,2.0,7.0,24,0.00,,,0.00,714.0,meteohub,2013-04-06 18:58:00,
2013-04-06 15:03:00,47.8,7.5,30.27,North,355,3.0,7.0,19,0.00,,,0.00,701.0,meteohub,2013-04-06 19:03:00,
2013-04-06 15:08:00,48.0,8.8,30.27,NNE,30,1.0,6.0,20,0.00,,,0.00,693.0,meteohub,2013-04-06 19:08:00,
2013-04-06 15:13:00,47.8,8.6,30.27,SE,128,1.0,12.0,20,0.00,,,0.00,684.0,meteohub,2013-04-06 19:13:00,
2013-04-06 15:18:00,47.5,8.4,30.26,WNW,294,0.0,12.0,20,0.00,,,0.00,673.0,meteohub,2013-04-06 19:18:00,
2013-04-06 15:24:00,48.0,8.8,30.26,NE,46,2.0,12.0,20,0.00,,,0.00,659.0,meteohub,2013-04-06 19:24:00,
2013-04-06 15:29:00,48.4,8.1,30.26,NE,51,2.0,10.0,19,0.00,,,0.00,649.0,meteohub,2013-04-06 19:29:00,
2013-04-06 15:34:00,48.6,8.1,30.26,East,86,0.0,5.0,19,0.00,,,0.00,628.0,meteohub,2013-04-06 19:34:00,
2013-04-06 15:40:00,48.6,8.1,30.26,ENE,69,2.0,5.0,19,0.00,,,0.00,624.0,meteohub,2013-04-06 19:40:00,
2013-04-06 15:45:00,48.9,7.2,30.26,NNE,33,2.0,5.0,18,0.00,,,0.00,592.0,meteohub,2013-04-06 19:45:00,
2013-04-06 15:50:00,48.9,10.8,30.26,NE,46,1.0,5.0,21,0.00,,,0.00,564.0,meteohub,2013-04-06 19:50:00,
2013-04-06 15:55:00,48.9,9.5,30.26,North,11,0.0,6.0,20,0.00,,,0.00,561.0,meteohub,2013-04-06 19:55:00,
2013-04-06 16:00:00,49.1,7.3,30.26,SSE,152,1.0,6.0,18,0.00,,,0.00,533.0,meteohub,2013-04-06 20:00:00,
2013-04-06 16:05:00,48.9,8.4,30.26,NE,36,1.0,6.0,19,0.00,,,0.00,548.0,meteohub,2013-04-06 20:05:00,
2013-04-06 16:10:00,48.7,9.5,30.25,North,0,0.0,6.0,20,0.00,,,0.00,547.0,meteohub,2013-04-06 20:10:00,
2013-04-06 16:15:00,48.9,11.7,30.25,NNW,327,0.0,6.0,22,0.00,,,0.00,531.0,meteohub,2013-04-06 20:15:00,
2013-04-06 16:20:00,49.5,9.0,30.25,West,275,1.0,4.0,19,0.00,,,0.00,415.0,meteohub,2013-04-06 20:20:00,
2013-04-06 16:26:00,49.8,9.1,30.26,WNW,283,0.0,3.0,19,0.00,,,0.00,443.0,meteohub,2013-04-06 20:26:00,
2013-04-06 16:32:00,49.8,8.1,30.25,South,175,0.0,3.0,18,0.00,,,0.00,308.0,meteohub,2013-04-06 20:32:00,
2013-04-06 16:37:00,50.2,10.6,30.25,East,81,1.0,2.0,20,0.00,,,0.00,339.0,meteohub,2013-04-06 20:37:00,
2013-04-06 16:42:00,50.5,10.9,30.26,ENE,67,1.0,5.0,20,0.00,,,0.00,341.0,meteohub,2013-04-06 20:42:00,
2013-04-06 16:47:00,50.2,11.7,30.26,WNW,294,1.0,5.0,21,0.00,,,0.00,353.0,meteohub,2013-04-06 20:47:00,
2013-04-06 16:52:00,49.8,9.1,30.27,WSW,251,5.0,5.0,19,0.00,,,0.00,329.0,meteohub,2013-04-06 20:52:00,
2013-04-06 16:57:00,49.5,10.0,30.27,ESE,113,2.0,7.0,20,0.00,,,0.00,408.0,meteohub,2013-04-06 20:57:00,
2013-04-06 17:02:00,49.5,11.1,30.26,East,83,2.0,7.0,21,0.00,,,0.00,327.0,meteohub,2013-04-06 21:02:00,
2013-04-06 17:07:00,49.5,13.1,30.27,East,80,0.0,7.0,23,0.00,,,0.00,295.0,meteohub,2013-04-06 21:07:00,
2013-04-06 17:12:00,49.3,10.9,30.27,East,84,1.0,4.0,21,0.00,,,0.00,315.0,meteohub,2013-04-06 21:12:00,
2013-04-06 17:17:00,49.3,10.9,30.27,SE,134,0.0,3.0,21,0.00,,,0.00,44.0,meteohub,2013-04-06 21:17:00,
2013-04-06 17:22:00,48.9,10.8,30.27,SE,124,0.0,3.0,21,0.00,,,0.00,315.0,meteohub,2013-04-06 21:22:00,
2013-04-06 17:27:00,48.7,10.6,30.27,SW,224,0.0,3.0,21,0.00,,,0.00,283.0,meteohub,2013-04-06 21:27:00,
2013-04-06 17:32:00,48.7,11.7,30.27,SSE,167,0.0,3.0,22,0.00,,,0.00,174.0,meteohub,2013-04-06 21:32:00,
2013-04-06 17:37:00,48.9,11.7,30.27,East,83,0.0,3.0,22,0.00,,,0.00,227.0,meteohub,2013-04-06 21:37:00,
2013-04-06 17:42:00,49.3,12.0,30.27,SSW,209,1.0,3.0,22,0.00,,,0.00,216.0,meteohub,2013-04-06 21:42:00,
2013-04-06 17:48:00,49.5,12.2,30.28,SSW,206,0.0,3.0,22,0.00,,,0.00,185.0,meteohub,2013-04-06 21:48:00,
2013-04-06 17:53:00,49.5,14.2,30.28,SSW,205,0.0,3.0,24,0.00,,,0.00,120.0,meteohub,2013-04-06 21:53:00,
2013-04-06 17:58:00,49.8,10.4,30.28,SSW,206,1.0,3.0,20,0.00,,,0.00,123.0,meteohub,2013-04-06 21:58:00,
2013-04-06 18:03:00,49.8,9.1,30.28,SSW,206,0.0,2.0,19,0.00,,,0.00,146.0,meteohub,2013-04-06 22:03:00,
2013-04-06 18:08:00,49.6,12.4,30.28,SSW,206,1.0,2.0,22,0.00,,,0.00,51.0,meteohub,2013-04-06 22:08:00,
2013-04-06 18:14:00,49.3,13.1,30.29,SW,231,0.0,2.0,23,0.00,,,0.00,47.0,meteohub,2013-04-06 22:14:00,
2013-04-06 18:20:00,48.7,11.7,30.29,SSE,157,0.0,2.0,22,0.00,,,0.00,30.0,meteohub,2013-04-06 22:20:00,
2013-04-06 18:25:00,48.6,9.3,30.28,SSW,213,0.0,3.0,20,0.00,,,0.00,70.0,meteohub,2013-04-06 22:25:00,
2013-04-06 18:30:00,48.2,13.1,30.29,SSW,213,0.0,3.0,24,0.00,,,0.00,35.0,meteohub,2013-04-06 22:30:00,
2013-04-06 18:35:00,47.8,11.8,30.29,SSW,213,1.0,3.0,23,0.00,,,0.00,26.0,meteohub,2013-04-06 22:35:00,
2013-04-06 18:40:00,47.5,9.5,30.29,SSW,213,0.0,3.0,21,0.00,,,0.00,21.0,meteohub,2013-04-06 22:40:00,
2013-04-06 18:46:00,46.9,13.8,30.29,SSW,213,0.0,3.0,26,0.00,,,0.00,18.0,meteohub,2013-04-06 22:46:00,
2013-04-06 18:51:00,46.2,11.5,30.30,SSW,213,0.0,3.0,24,0.00,,,0.00,14.0,meteohub,2013-04-06 22:51:00,
2013-04-06 18:56:00,45.9,14.5,30.30,SSW,213,0.0,2.0,28,0.00,,,0.00,12.0,meteohub,2013-04-06 22:56:00,
2013-04-06 19:02:00,45.3,14.9,30.29,SSW,213,0.0,1.0,29,0.00,,,0.00,11.0,meteohub,2013-04-06 23:02:00,
2013-04-06 19:07:00,45.0,15.4,30.29,SSW,213,0.0,0.0,30,0.00,,,0.00,9.0,meteohub,2013-04-06 23:07:00,
2013-04-06 19:12:00,44.2,13.1,30.29,SSW,213,0.0,0.0,28,0.00,,,0.00,7.0,meteohub,2013-04-06 23:12:00,
2013-04-06 19:17:00,43.5,14.2,30.29,SSW,213,0.0,0.0,30,0.00,,,0.00,5.0,meteohub,2013-04-06 23:17:00,
2013-04-06 19:22:00,43.0,14.4,30.30,SSW,213,0.0,0.0,31,0.00,,,0.00,0.0,meteohub,2013-04-06 23:22:00,
2013-04-06 19:28:00,42.3,15.3,30.30,SSW,213,0.0,1.0,33,0.00,,,0.00,0.0,meteohub,2013-04-06 23:28:00,
2013-04-06 19:33:00,41.5,17.8,30.30,SSW,213,0.0,1.0,38,0.00,,,0.00,0.0,meteohub,2013-04-06 23:33:00,
2013-04-06 19:38:00,40.8,18.9,30.30,SSW,213,0.0,1.0,41,0.00,,,0.00,0.0,meteohub,2013-04-06 23:38:00,
2013-04-06 19:43:00,40.5,16.2,30.30,SSW,213,0.0,0.0,37,0.00,,,0.00,0.0,meteohub,2013-04-06 23:43:00,
2013-04-06 19:48:00,39.9,17.6,30.30,SSW,213,0.0,0.0,40,0.00,,,0.00,0.0,meteohub,2013-04-06 23:48:00,
2013-04-06 19:53:00,39.4,17.6,30.30,SSW,213,0.0,0.0,41,0.00,,,0.00,0.0,meteohub,2013-04-06 23:53:00,
2013-04-06 19:58:00,39.0,17.2,30.30,SSW,213,0.0,0.0,41,0.00,,,0.00,0.0,meteohub,2013-04-06 23:58:00,
2013-04-06 20:04:00,38.7,19.6,30.30,SSW,213,0.0,0.0,46,0.00,,,0.00,0.0,meteohub,2013-04-07 00:04:00,
2013-04-06 20:09:00,38.3,18.9,30.30,SSW,213,0.0,0.0,45,0.00,,,0.00,0.0,meteohub,2013-04-07 00:09:00,
2013-04-06 20:14:00,37.9,19.0,30.30,SSW,213,0.0,0.0,46,0.00,,,0.00,0.0,meteohub,2013-04-07 00:14:00,
2013-04-06 20:21:00,37.8,19.8,30.30,SSW,213,0.0,0.0,48,0.00,,,0.00,0.0,meteohub,2013-04-07 00:21:00,
2013-04-06 20:26:00,37.2,17.8,30.30,SSW,213,0.0,0.0,45,0.00,,,0.00,0.0,meteohub,2013-04-07 00:26:00,
2013-04-06 20:31:00,37.0,18.1,30.30,SSW,213,0.0,0.0,46,0.00,,,0.00,0.0,meteohub,2013-04-07 00:31:00,
2013-04-06 20:36:00,36.9,17.1,30.30,SSW,213,0.0,0.0,44,0.00,,,0.00,0.0,meteohub,2013-04-07 00:36:00,
2013-04-06 20:42:00,36.9,17.1,30.30,SSW,213,0.0,0.0,44,0.00,,,0.00,0.0,meteohub,2013-04-07 00:42:00,
2013-04-06 20:47:00,36.7,17.8,30.30,SSW,213,0.0,0.0,46,0.00,,,0.00,0.0,meteohub,2013-04-07 00:47:00,
2013-04-06 20:52:00,36.7,18.3,30.31,SSW,213,0.0,0.0,47,0.00,,,0.00,0.0,meteohub,2013-04-07 00:52:00,
2013-04-06 20:57:00,36.9,19.4,30.31,SSW,213,0.0,0.0,49,0.00,,,0.00,0.0,meteohub,2013-04-07 00:57:00,
2013-04-06 21:02:00,36.9,19.4,30.31,SSW,213,0.0,0.0,49,0.00,,,0.00,0.0,meteohub,2013-04-07 01:02:00,
2013-04-06 21:08:00,36.9,17.4,30.31,SSW,213,0.0,1.0,45,0.00,,,0.00,0.0,meteohub,2013-04-07 01:08:00,
2013-04-06 21:13:00,36.9,19.0,30.31,SSW,213,0.0,2.0,48,0.00,,,0.00,0.0,meteohub,2013-04-07 01:13:00,
2013-04-06 21:18:00,36.7,17.8,30.31,SSW,213,0.0,2.0,46,0.00,,,0.00,0.0,meteohub,2013-04-07 01:18:00,
2013-04-06 21:24:00,36.7,16.9,30.31,SSW,213,0.0,2.0,44,0.00,,,0.00,0.0,meteohub,2013-04-07 01:24:00,
2013-04-06 21:29:00,36.7,16.9,30.31,SSW,213,0.0,1.0,44,0.00,,,0.00,0.0,meteohub,2013-04-07 01:29:00,
2013-04-06 21:34:00,36.7,17.4,30.31,SSW,213,0.0,1.0,45,0.00,,,0.00,0.0,meteohub,2013-04-07 01:34:00,
2013-04-06 21:39:00,36.5,17.2,30.31,SSW,213,0.0,1.0,45,0.00,,,0.00,0.0,meteohub,2013-04-07 01:39:00,
2013-04-06 21:44:00,36.7,17.4,30.31,SW,215,0.0,1.0,45,0.00,,,0.00,0.0,meteohub,2013-04-07 01:44:00,
2013-04-06 21:50:00,36.9,18.5,30.31,SW,215,0.0,3.0,47,0.00,,,0.00,0.0,meteohub,2013-04-07 01:50:00,
2013-04-06 21:55:00,36.7,16.9,30.31,SW,215,0.0,3.0,44,0.00,,,0.00,0.0,meteohub,2013-04-07 01:55:00,
2013-04-06 22:00:00,36.9,17.4,30.31,SW,215,0.0,1.0,45,0.00,,,0.00,0.0,meteohub,2013-04-07 02:00:00,
2013-04-06 22:06:00,36.7,17.8,30.31,SW,215,0.0,1.0,46,0.00,,,0.00,0.0,meteohub,2013-04-07 02:06:00,
2013-04-06 22:11:00,36.5,17.6,30.31,SW,215,0.0,1.0,46,0.00,,,0.00,0.0,meteohub,2013-04-07 02:11:00,
2013-04-06 22:16:00,36.3,18.5,30.31,SW,215,0.0,1.0,48,0.00,,,0.00,0.0,meteohub,2013-04-07 02:16:00,
2013-04-06 22:22:00,36.1,15.8,30.31,SW,215,0.0,1.0,43,0.00,,,0.00,0.0,meteohub,2013-04-07 02:22:00,
2013-04-06 22:27:00,36.1,16.3,30.31,SW,215,0.0,0.0,44,0.00,,,0.00,0.0,meteohub,2013-04-07 02:27:00,
2013-04-06 22:32:00,36.1,17.4,30.31,SW,215,0.0,1.0,46,0.00,,,0.00,0.0,meteohub,2013-04-07 02:32:00,
2013-04-06 22:37:00,36.1,18.3,30.31,SW,215,0.0,1.0,48,0.00,,,0.00,0.0,meteohub,2013-04-07 02:37:00,
2013-04-06 22:42:00,36.1,19.2,30.30,SW,215,0.0,1.0,50,0.00,,,0.00,0.0,meteohub,2013-04-07 02:42:00,
2013-04-06 22:48:00,36.1,17.8,30.30,SW,215,0.0,1.0,47,0.00,,,0.00,0.0,meteohub,2013-04-07 02:48:00,
2013-04-06 22:53:00,36.3,18.5,30.30,SW,215,0.0,1.0,48,0.00,,,0.00,0.0,meteohub,2013-04-07 02:53:00,
2013-04-06 22:58:00,36.1,18.9,30.30,SW,215,0.0,1.0,49,0.00,,,0.00,0.0,meteohub,2013-04-07 02:58:00,
2013-04-06 23:03:00,36.1,17.8,30.30,SW,215,0.0,1.0,47,0.00,,,0.00,0.0,meteohub,2013-04-07 03:03:00,
2013-04-06 23:08:00,36.1,19.2,30.30,SW,215,0.0,1.0,50,0.00,,,0.00,0.0,meteohub,2013-04-07 03:08:00,
2013-04-06 23:13:00,36.0,18.7,30.30,SW,215,0.0,1.0,49,0.00,,,0.00,0.0,meteohub,2013-04-07 03:13:00,
2013-04-06 23:19:00,36.0,18.1,30.30,SW,215,0.0,1.0,48,0.00,,,0.00,0.0,meteohub,2013-04-07 03:19:00,
2013-04-06 23:24:00,35.8,19.0,30.30,SW,215,0.0,0.0,50,0.00,,,0.00,0.0,meteohub,2013-04-07 03:24:00,
2013-04-06 23:29:00,35.4,19.6,30.29,SW,215,0.0,0.0,52,0.00,,,0.00,0.0,meteohub,2013-04-07 03:29:00,
2013-04-06 23:35:00,35.4,20.5,30.29,SW,215,0.0,0.0,54,0.00,,,0.00,0.0,meteohub,2013-04-07 03:35:00,
2013-04-06 23:40:00,35.2,19.4,30.29,SW,215,0.0,0.0,52,0.00,,,0.00,0.0,meteohub,2013-04-07 03:40:00,
2013-04-06 23:45:00,35.2,18.5,30.29,SW,215,0.0,1.0,50,0.00,,,0.00,0.0,meteohub,2013-04-07 03:45:00,
2013-04-06 23:51:00,35.2,18.9,30.29,SW,215,0.0,1.0,51,0.00,,,0.00,0.0,meteohub,2013-04-07 03:51:00,
2013-04-06 23:56:00,35.1,18.7,30.28,SW,215,0.0,1.0,51,0.00,,,0.00,0.0,meteohub,2013-04-07 03:56:00,